This demonstration page uses our WeatherBlox Daily Observations layout. Learn more.

Left ArrowRight Arrow

Hourly Observations for September 9, 2021

Temp ( °F °C ) Dew Point ( °F °C ) Humidity (%) Winds ( mph kmh ) Pressure ( in mb ) Visibility ( mi km ) Precip ( " mm )
12:15 am 00:15 Cloudy with Heavy Rain 70 21 70 21 100 100 N 3 6 29.82 1010 4 6 0.06 1.52
12:35 am 00:35 Cloudy with Rain 68 20 68 20 100 100 NNE 7 11 29.81 1010 7 11 0.19 4.83
12:55 am 00:55 Cloudy with Thunderstorms 70 21 70 21 100 100 NNE 8 13 29.80 1009 7 11 0.21 5.33
1:15 am 01:15 Cloudy with Heavy Rain 68 20 68 20 100 100 N 3 6 29.80 1009 3 4 0.18 4.57
1:35 am 01:35 Cloudy with Rain 68 20 68 20 100 100 N N/A 29.81 1010 3 4 0.43 10.92
1:55 am 01:55 Cloudy with Heavy Rain 68 20 68 20 100 100 SE 3 6 29.82 1010 2 2 0.65 16.51
2:15 am 02:15 Cloudy with Heavy Rain 68 20 68 20 100 100 NNW 8 13 29.81 1010 3 5 0.17 4.32
2:35 am 02:35 Cloudy with Light Rain 68 20 68 20 100 100 N 6 9 29.81 1010 4 6 0.26 6.60
2:55 am 02:55 Mostly Cloudy with Light Rain 68 20 68 20 100 100 NNW 6 9 29.81 1010 10 16 0.26 6.60
3:15 am 03:15 Cloudy with Rain 68 20 68 20 100 100 N 7 11 29.82 1010 7 11 0.02 0.51
3:35 am 03:35 Cloudy with Rain 68 20 66 19 94 94 NNE 5 7 29.83 1010 10 16 0.03 0.76
3:55 am 03:55 Cloudy 66 19 66 19 100 100 NNE 5 7 29.82 1010 10 16 0.04 1.02
4:15 am 04:15 Cloudy 66 19 64 18 94 94 NNE 3 6 29.81 1010 10 16 N/A
4:35 am 04:35 Mostly Cloudy 64 18 64 18 100 100 NE 3 6 29.80 1009 10 16 N/A
4:55 am 04:55 Mostly Cloudy 64 18 64 18 100 100 NNW 5 7 29.80 1009 10 16 N/A
5:15 am 05:15 Partly Cloudy 64 18 64 18 100 100 N N/A 29.80 1009 10 16 N/A
5:35 am 05:35 Clear 64 18 64 18 100 100 N N/A 29.80 1009 10 16 N/A
5:55 am 05:55 Clear 64 18 64 18 100 100 N N/A 29.82 1010 10 16 N/A
6:15 am 06:15 Clear 64 18 64 18 100 100 N N/A 29.82 1010 7 11 N/A
6:35 am 06:35 Partly Cloudy 64 18 64 18 100 100 N N/A 29.82 1010 10 16 N/A
6:55 am 06:55 Mostly Cloudy 64 18 64 18 100 100 N N/A 29.83 1010 10 16 N/A
7:15 am 07:15 Cloudy 64 18 64 18 100 100 N N/A 29.84 1011 10 16 N/A
7:35 am 07:35 Cloudy 64 18 64 18 100 100 N N/A 29.84 1011 10 16 N/A
7:55 am 07:55 Partly Cloudy 66 19 66 19 100 100 N N/A 29.84 1011 10 16 N/A
8:15 am 08:15 Partly Cloudy 68 20 64 18 88 88 N N/A 29.83 1010 10 16 N/A
8:35 am 08:35 Cloudy 68 20 64 18 88 88 N N/A 29.83 1010 10 16 N/A
8:55 am 08:55 Cloudy 68 20 64 18 88 88 N N/A 29.84 1011 10 16 N/A
9:15 am 09:15 Cloudy 68 20 64 18 88 88 N N/A 29.84 1011 10 16 N/A
9:35 am 09:35 Cloudy 68 20 66 19 94 94 NW 3 6 29.84 1011 10 16 N/A
9:55 am 09:55 Cloudy 68 20 68 20 100 100 N N/A 29.85 1011 10 16 N/A
10:15 am 10:15 Cloudy with Light Rain 68 20 68 20 100 100 N N/A 29.84 1011 10 16 N/A
10:35 am 10:35 Cloudy 68 20 68 20 100 100 WNW 6 9 29.85 1011 10 16 N/A
10:55 am 10:55 Cloudy with Drizzle 70 21 68 20 94 94 N N/A 29.85 1011 10 16 N/A
11:15 am 11:15 Cloudy 70 21 68 20 94 94 N 3 6 29.85 1011 10 16 N/A
11:35 am 11:35 Cloudy 72 22 70 21 94 94 NNW 7 11 29.85 1011 10 16 N/A
11:55 am 11:55 Cloudy 72 22 68 20 88 88 NNW 6 9 29.85 1011 10 16 N/A
12:15 pm 12:15 Cloudy 72 22 68 20 88 88 NNW 6 9 29.84 1010 10 16 N/A
12:35 pm 12:35 Cloudy 72 22 68 20 88 88 NNW 6 9 29.83 1010 10 16 N/A
12:55 pm 12:55 Cloudy 72 22 66 19 83 83 N 6 9 29.82 1010 10 16 N/A
1:15 pm 13:15 Cloudy 72 22 66 19 83 83 N 7 11 29.82 1010 10 16 N/A
1:35 pm 13:35 Partly Cloudy 72 22 68 20 88 88 NNW 7 11 29.83 1010 10 16 N/A
1:55 pm 13:55 Sunny 72 22 68 20 88 88 NW 6 9 29.82 1010 10 16 N/A
2:15 pm 14:15 Sunny 73 23 68 20 83 83 N 7 11 29.82 1010 10 16 N/A
2:35 pm 14:35 Sunny 73 23 66 19 78 78 NNW 9 15 29.81 1009 10 16 N/A
2:55 pm 14:55 Sunny 75 24 64 18 69 69 N 6 9 29.81 1009 10 16 N/A
3:15 pm 15:15 Sunny 75 24 64 18 69 69 NNW 6 9 29.81 1009 10 16 N/A
3:35 pm 15:35 Partly Cloudy 79 26 64 18 61 61 NW 5 7 29.79 1009 10 16 N/A
3:55 pm 15:55 Partly Cloudy 79 26 63 17 58 58 NNW 7 11 29.79 1009 10 16 N/A
4:15 pm 16:15 Partly Cloudy 79 26 64 18 61 61 WNW 5 7 29.79 1009 10 16 N/A
4:35 pm 16:35 Partly Cloudy 77 25 63 17 61 61 N N/A 29.79 1009 10 16 N/A
4:55 pm 16:55 Partly Cloudy 79 26 63 17 58 58 WNW 6 9 29.80 1009 10 16 N/A
5:15 pm 17:15 Partly Cloudy 77 25 64 18 65 65 WNW 7 11 29.80 1009 10 16 N/A
5:35 pm 17:35 Sunny 75 24 63 17 65 65 NW 7 11 29.82 1010 10 16 N/A
5:55 pm 17:55 Mostly Cloudy with Rain 70 21 59 15 69 69 WNW 16 26 29.83 1010 10 16 N/A
6:15 pm 18:15 Cloudy 70 21 61 16 73 73 WSW 6 9 29.81 1009 10 16 N/A
6:35 pm 18:35 Mostly Cloudy 72 22 59 15 65 65 W 7 11 29.81 1009 10 16 N/A
6:55 pm 18:55 Sunny 68 20 59 15 73 73 W 6 9 29.82 1010 10 16 N/A
7:15 pm 19:15 Mostly Cloudy 68 20 59 15 73 73 NW 13 20 29.84 1011 10 16 N/A
7:35 pm 19:35 Cloudy 68 20 61 16 78 78 NW 9 15 29.83 1010 10 16 N/A
7:55 pm 19:55 Mostly Cloudy 68 20 61 16 78 78 WNW 8 13 29.84 1011 10 16 N/A
8:15 pm 20:15 Mostly Cloudy 68 20 61 16 78 78 NW 8 13 29.85 1011 10 16 N/A
8:35 pm 20:35 Partly Cloudy 66 19 61 16 83 83 NW 7 11 29.86 1011 10 16 N/A
8:55 pm 20:55 Clear 64 18 59 15 83 83 NW 7 11 29.87 1012 10 16 N/A
9:15 pm 21:15 Clear 66 19 59 15 78 78 NW 7 11 29.88 1012 10 16 N/A
9:35 pm 21:35 Clear 64 18 59 15 83 83 NW 8 13 29.89 1012 10 16 N/A
9:55 pm 21:55 Clear 64 18 59 15 83 83 NW 7 11 29.89 1012 10 16 N/A
10:15 pm 22:15 Clear 64 18 59 15 83 83 NW 6 9 29.89 1012 10 16 N/A
10:35 pm 22:35 Clear 64 18 57 14 78 78 NW 6 9 29.89 1012 10 16 N/A
10:55 pm 22:55 Clear 64 18 57 14 78 78 W 3 6 29.89 1012 10 16 N/A
11:15 pm 23:15 Clear 63 17 57 14 83 83 NW 7 11 29.91 1013 10 16 N/A
11:35 pm 23:35 Clear 63 17 57 14 83 83 WNW 5 7 29.91 1013 10 16 N/A
11:55 pm 23:55 Clear 64 18 57 14 78 78 NW 12 19 29.91 1013 10 16 N/A

Powered by AerisWeather